STARLINK-3802, 52286

Orbit data source: Space-Track

STARLINK-3802, 52286 is a payload satellite owned by SpaceX/Seattle (US) in LEO that was launched on Thu, 21 Apr 2022 UTC via an FALCON 9 launch vehicle from the Air Force Eastern Test Range (AFETR). Payload-class satellites include a variety of spacecraft equipped with specific instruments for various scientific and technological missions. These include communications satellites like Starlink; space stations such as the ISS; scientific satellites like the Hubble; Earth observation satellites from companies like Planet Labs, Umbra, and HawkEye 360; GPS; miniature CubeSats for education and research; and military/defense satellites.

Loading next visibility...
Identifier
52286, 2022-041AB
Orbit
LEO
Country
Flag of USUS
Related business
Manufacturer
SpaceX/Seattle
Mission
Operational Commercial Communications
Bus & Motor
STARLINK, Unknown motor
Mass
297 kg wet, ~275 kg dry
Launch date (UTC)
2022-04-21 (4 years ago)
Launch vehicle
FALCON 9
Launch site
Air Force Eastern Test Range (AFETR)
Object type
Payload
Rocket body
Debris
Shape & HBR
Box + 1 Pan, 10.1 m
Radar Cross Section
11.087 m², Large (>1 m²)

Expand to show TLE details & history
Last TLE update: 14 hours ago

TLE from 14 hours ago
0 STARLINK-3802
1 52286U 22041AB  26130.10635309 -.00000271  00000-0  10666-5 0  9996
2 52286  53.2163 183.4113 0001232  85.6042 274.5091 15.08834603223776
Epoch: 2026-05-10T02:33Z
TLE epoch observation values (Epoch: 2026-05-10T02:33:08.906Z)
Latitude
-0.00004°
Longitude
-82.79003°
Altitude
540.59 km
Speed
7.593 km/s
True Right ascension
12h 13m 38s
True Declination
0° 00' 00"
Sunlit
Object was in full shadow at epoch
Visualization orbit readout
Latitude
Unknown
Longitude
Unknown
Altitude
Unknown
Speed
Unknown
Apparent Right ascension
Unknown
Apparent Declination
Unknown
Sunlit
N/A
Visualization observer readout
Local Sidereal Time
00:19:16
Azimuth
Unknown
Elevation
Unknown
Doppler factor
Unknown
Orbital elements
Apogee altitude
540.857 km
Perigee altitude
539.153 km
Semi-major axis
6,918.142 km
Eccentricity
0.00012
Inclination
53.2163°
RAAN
183.4113°
Arg. of periapsis
85.6042°
True anomaly
274.49503°
Mean anomaly
274.5091°
Eccentric anomaly
274.50206°
Mean motion
3.77189 °/min
Orbital period
95.44 mins
BSTAR
0.0000010666
Loading maneuver chart data...
Computing Atmospheric mass density...
Loading historical data...
Loading historical data...
Loading historical data...
Loading historical data...
Loading historical data...
Loading historical data...
Loading historical data...

Documentation

Showing up to 5 results
|